This is the latest recevied weather packets stored in our database for station/object HS5SQI-1. If no packets are shown the sender has not sent any weather packets the latest 10 day(s).
| Time | Temp. | Humidity | Pressure | Rain* | Wind** | Luminosity | Snow |
|---|---|---|---|---|---|---|---|
| 1777550881 | 30° C | 99% | 965 hPa | - | - | 0 W/m² | - |
| 1777550259 | 29.44° C | 99% | 964 hPa | - | - | 0 W/m² | - |
| 1777549636 | 31.11° C | 99% | 964 hPa | - | - | 0 W/m² | - |
| 1777549014 | 32.22° C | 99% | 964 hPa | - | - | 0 W/m² | - |
| 1777548392 | 33.33° C | 85% | 964 hPa | - | - | 0 W/m² | - |
| 1777547770 | 33.89° C | 74% | 963 hPa | - | - | 0 W/m² | - |
| 1777547148 | 33.89° C | 74% | 963 hPa | - | - | 0 W/m² | - |
| 1777546525 | 33.89° C | 75% | 963 hPa | - | - | 0 W/m² | - |
| 1777545903 | 33.89° C | 75% | 963 hPa | - | - | 0 W/m² | - |
| 1777545281 | 33.89° C | 73% | 963 hPa | - | - | 0 W/m² | - |
| 1777544659 | 33.89° C | 78% | 963 hPa | - | - | 0 W/m² | - |
| 1777544037 | 33.89° C | 84% | 963 hPa | - | - | 0 W/m² | - |
| 1777543415 | 33.89° C | 83% | 963 hPa | - | - | 0 W/m² | - |
| 1777542793 | 33.89° C | 88% | 963 hPa | - | - | 0 W/m² | - |
| 1777542170 | 33.89° C | 84% | 963 hPa | - | - | 0 W/m² | - |
| 1777541549 | 33.89° C | 84% | 963 hPa | - | - | 0 W/m² | - |
| 1777540927 | 33.89° C | 84% | 963 hPa | - | - | 0 W/m² | - |
| 1777540304 | 33.89° C | 85% | 963 hPa | - | - | 0 W/m² | - |
| 1777539682 | 33.89° C | 83% | 963 hPa | - | - | 0 W/m² | - |
| 1777539060 | 33.89° C | 80% | 963 hPa | - | - | 0 W/m² | - |
| 1777538438 | 33.89° C | 83% | 964 hPa | - | - | 0 W/m² | - |
| 1777537816 | 33.89° C | 85% | 964 hPa | - | - | 0 W/m² | - |
| 1777537194 | 33.89° C | 85% | 963 hPa | - | - | 0 W/m² | - |
| 1777536572 | 33.89° C | 91% | 964 hPa | - | - | 0 W/m² | - |
| 1777535949 | 33.33° C | 94% | 964 hPa | - | - | 0 W/m² | - |
* Rain since midnight (hover to see other rain measurements)
** Current wind speed in m/s (hover to see current wind gust speed)